DELTA 1 DEB, 7035

Orbit data source: Space-Track

DELTA 1 DEB, 7035 is space debris in LEO originally from a launch on Tue, 06 Nov 1973 UTC launched from the Air Force Western Test Range (AFWTR). Debris objects in space refer to the collection of defunct objects orbiting the Earth. Examples of debris include non-operational satellites, rocket bodies, and fragments generated from explosions, collisions, or faulty payload assembly.

Loading next visibility...
DELTA 1 DEB details
Identifier
7035, 1973-086AB
Orbit
LEO
Last TLE update14 hours ago
Origin
Flag of USGSFC (US)
ManufacturerUnknown
MissionSpacecraft
Bus & MotorUnknown
MassUnknown
Launch date (UTC)
1973-11-06 (51 years ago)
Launch vehicleUnknown
Launch site
Air Force Western Test Range (AFWTR)
Object type
Payload
Rocket body
Debris
Shape & HBRUnknown
Radar Cross SectionMedium (>0.1 m² and <1 m²)

Expand to show TLE details & history

TLE from 14 hours ago
0 DELTA 1 DEB
1  7035U 73086AB  24360.87873414  .00000182  00000-0  29086-2 0  9994
2  7035 101.7471 335.6635 0319030 293.8327 135.2359 11.83410119206903
Epoch: 2024-12-25T21:05Z
Definitive object data (Epoch: 2024-12-25T21:05:22.629Z)
Latitude68.3292°
Longitude-106.93977°
Altitude1,955.899 km
Speed6.842 km/s
True Right ascension20h 17m 04s
True Declination68° 13' 41"
Sunlit
Object was in daylight at TLE epoch
Visualization TLE readout
Latitude38.5761°
Longitude-84.54261°
Altitude1,827.716 km
Speed6.945 km/s
Apparent Right ascension22h 04m 22s
Apparent Declination5° 11' 29"
Sunlit
Object is in daylight
Visualization observer readout
Local Sidereal Time10:27:35
Azimuth8.129° NNE
Elevation-44.577°
Doppler factor1
Orbital elements
Apogee altitude2,013.062 km
Perigee altitude1,494.207 km
Semi-major axis8,131.772 km
Eccentricity0.031903
Inclination101.7471°
RAAN335.6635°
Arg. of periapsis293.8327°
True anomaly137.73853°
Mean anomaly135.2359°
Eccentric anomaly136.49428°
Mean motion2.95982 °/min
BSTAR0.0029086
Orbital period121.63 mins
Loading maneuver chart data...
Loading historical data...
Loading historical data...
Loading historical data...
Loading historical data...
Loading historical data...
Loading historical data...
Loading historical data...

DELTA 1 DEB Visibility forecast

Observer location: undefined°, undefined

Span
Click to sort rows by Start time (UTC) header in descending order
Start Az.
Max El. time (UTC)
Max El. Az.
Max El.
End time (UTC)
End Az.
21 mins2024-12-26 11:31:17.713Z17.4° NNE2024-12-26 11:41:17.713Z31.785° NE44.864°2024-12-26 11:52:17.713Z199.638° SSW
15 mins2024-12-26 13:32:17.713Z356.022° N2024-12-26 13:39:17.713Z311.447° NW24.751°2024-12-26 13:47:17.713Z260.224° W
5 mins2024-12-26 19:19:17.713Z46.058° ENE2024-12-26 19:21:17.713Z34.275° NE11.644°2024-12-26 19:24:17.713Z17.269° NNE
16 mins2024-12-26 21:10:17.713Z120.919° SE2024-12-26 21:17:17.713Z59.619° ENE35.218°2024-12-26 21:26:17.713Z354.191° N
18 mins2024-12-26 23:08:17.713Z189.723° SSW2024-12-26 23:16:17.713Z259.488° W37.444°2024-12-26 23:26:17.713Z333.593° NNW
16 mins2024-12-27 09:54:17.713Z41.402° NE2024-12-27 10:02:17.713Z94.79° ESE25.782°2024-12-27 10:10:17.713Z147.144° SSE
|